Terug naar catalogus

STARLINK-37737

ActiefCommunicatieSSO
NORAD 69227·PAYLOAD·🇺🇸 United States

Gelanceerd May 26, 2026 vanaf Vandenberg Space Force Base

Loading…

Volgende Passages (komende 24 uur)

TLE

VersSource: CelesTrak SupGP

Epoch: Sep 15, 2026, 03:17 UTC

1 69227C 26115S   26258.13729167 -.00055487  00000+0 -17226-2 0  2588
2 69227  97.2833 274.3480 0001529  90.7271 175.6912 15.33464919    18

Volg STARLINK-37737 in realtime met AllMySat

Download on the App Store